Flag for Germany Weather past 2 weeks in Prenzlau, Brandenburg, Germany

Now
52 °F

Clear.


Feels Like: 52 °F
Forecast: 50 / 73 °F
Wind: No wind

Location: Szczecin Airport

Current Time: Aug 28, 2014 at 12:06:37 AM

Latest Report: Aug 27, 2014 at 11:30 PM


Visibility: 10 mi

Pressure: 29.98 "Hg

Humidity: 88%

Dew point: 48 °F

Location of PrenzlauLocation

Historic Weather in Prenzlau — Graph

°F

Prenzlau temperature yesterday

Maximum temperature yesterday: 68 °F (at 2:30 PM)
Minimum temperature yesterday: 45 °F (at 4:00 AM)
Average temperature yesterday: 57 °F

Past Weeks' High & Low Weather Summary

 TemperatureHumidityPressure
High77 °F (Aug 13, 3:30 PM)100% (Aug 12, 11:00 PM)29.98 "Hg (Aug 12, 11:00 PM)
Low41 °F (Aug 26, 6:30 AM)35% (Aug 26, 4:00 PM)29.53 "Hg (Aug 18, 6:00 PM)
Average59 °F72%29.82 "Hg
* Reported Aug 12 10:00 PM — Aug 27 10:30 PM, Prenzlau, Weather by CustomWeather, © 2014

Note: Actual official high and low records may vary slightly from our data, if they occured in-between our weather recording intervals... More about our weather records

Advertising

Prenzlau weather history for previous 24 hours

 ConditionsComfort  
Time TempWeatherWind HumidityBarometerVisibility
10:30 PM
Aug 27
52 °FClear.No wind82%29.98 "Hg10 mi
10:00 PM55 °FClear.No wind82%29.98 "Hg10 mi
9:30 PM54 °FClear.No wind82%29.98 "Hg10 mi
9:00 PM57 °FSunny.No wind72%29.95 "Hg10 mi
8:00 PM61 °FSunny.6 mph63%29.95 "Hg10 mi
7:30 PM64 °FSunny.8 mph52%29.95 "Hg10 mi
7:00 PM66 °FSunny.10 mph49%29.95 "Hg10 mi
6:30 PM66 °FSunny.12 mph49%29.92 "Hg10 mi
6:00 PM66 °FSunny.13 mph49%29.92 "Hg10 mi
5:00 PM68 °FSunny.17 mph38%29.92 "Hg10 mi
4:30 PM68 °FPassing clouds.20 mph40%29.92 "HgN/A
4:00 PM66 °FPassing clouds.10 mph49%29.92 "HgN/A
3:30 PM64 °FScattered clouds.13 mph52%29.92 "HgN/A
3:00 PM66 °FScattered clouds.14 mph56%29.92 "HgN/A
2:30 PM68 °FScattered clouds.9 mph53%29.92 "HgN/A
2:00 PM66 °FScattered clouds.13 mph52%29.92 "HgN/A
1:30 PM64 °FScattered clouds.12 mph56%29.92 "HgN/A
1:00 PM66 °FScattered clouds.15 mph56%29.89 "HgN/A
12:30 PM66 °FScattered clouds.14 mph56%29.89 "HgN/A
12:00 PM64 °FScattered clouds.10 mph64%29.89 "HgN/A
11:30 AM66 °FScattered clouds.8 mph60%29.89 "HgN/A
11:00 AM63 °FScattered clouds.8 mph68%29.89 "HgN/A
10:30 AM61 °FScattered clouds.8 mph94%29.89 "HgN/A
10:00 AM59 °FBroken clouds.5 mph100%29.86 "Hg4 mi
9:30 AM57 °FFog.5 mph94%29.86 "Hg2 mi
9:00 AM55 °FFog.3 mph100%29.86 "Hg1 mi
8:30 AM55 °FDense fog.5 mph94%29.86 "Hg0 mi
8:00 AM54 °FFog.5 mph100%29.86 "Hg0 mi
7:30 AM54 °FFog.2 mph94%29.83 "Hg0 mi
7:00 AM52 °FFog.No wind94%29.83 "Hg0 mi
6:30 AM50 °FFog.No wind94%29.83 "Hg0 mi
6:00 AM48 °FFog.No wind94%29.83 "Hg0 mi
5:30 AM46 °FFog.No wind93%29.83 "Hg4 mi
5:00 AM45 °FFog.No wind93%29.80 "HgN/A
4:30 AM45 °FClear.No wind93%29.80 "Hg10 mi
4:00 AM45 °FClear.No wind93%29.80 "Hg10 mi
3:30 AM46 °FClear.No wind87%29.80 "Hg10 mi
3:00 AM46 °FClear.No wind93%29.80 "Hg10 mi
2:30 AM46 °FClear.2 mph93%29.80 "Hg10 mi
2:00 AM46 °FClear.No wind93%29.80 "Hg10 mi
1:30 AM48 °FClear.No wind87%29.80 "Hg10 mi
1:00 AM48 °FClear.No wind87%29.80 "Hg10 mi
12:30 AM48 °FClear.No wind87%29.77 "Hg10 mi
12:00 AM48 °FClear.No wind87%29.77 "Hg10 mi
Weather by CustomWeather, © 2014

See weather overviewHow to use our weather pages